Torna al catalogo

YZ-1 R/B

AttivoMEO
NORAD 44544·ROCKET BODY·🇨🇳 China

Lanciato Sep 22, 2019 da Xichang Satellite Launch Center

Loading…

Prossimi Passaggi (prossime 24 ore)

TLE

AggiornatoSource: Space-Track

Epoca: Sep 14, 2026, 06:33 UTC

1 44544U 19061C   26257.27357099  .00000011  00000-0  00000-0 0  9994
2 44544  54.4341 185.7160 0034722 257.5425 102.0708  1.80432533 45994

Traccia YZ-1 R/B in tempo reale con AllMySat

Download on the App Store